CW1172 Weather Reports


time (UTC)temp
C
wind
direction
speed
KPH
gust
KPH
rain 1hr
cm
rain 24hr
cm
rain mn
cm
humidity
%
barometer
mb
20260503054611 9 360 0.0 0.0 0.00 0.00 0.00 90 1008.2
20260503053056 9 219 0.0 0.0 0.00 0.00 0.00 90 1008.3
20260503051557 9 218 0.0 0.0 0.00 0.00 0.00 90 1008.2
20260503050057 9 211 0.0 0.0 0.00 0.00 0.00 89 1008.2
20260503044556 9 273 0.0 0.0 0.00 0.00 0.00 89 1008.2
20260503043059 9 229 0.0 0.0 0.00 0.00 0.00 88 1008.2
20260503041553 9 248 0.0 0.0 0.00 0.00 0.00 88 1008.2
20260503040055 10 205 0.0 0.0 0.00 0.00 0.00 88 1008.3
20260503034552 10 191 0.0 0.0 0.00 0.00 0.00 88 1008.2
20260503033052 10 192 0.0 0.0 0.00 0.00 0.00 88 1008.0
20260503031551 10 229 0.0 0.0 0.00 0.00 0.00 88 1008.1
20260503030051 10 199 0.0 0.0 0.00 0.00 0.00 88 1008.2
20260503024550 10 217 0.0 0.0 0.00 0.00 0.00 88 1008.2
20260503023054 10 214 0.0 0.0 0.00 0.00 0.00 88 1008.1
20260503021552 10 213 0.0 0.0 0.00 0.00 0.00 88 1008.1
20260503020051 10 218 0.0 0.0 0.00 0.00 0.00 88 1008.2
20260503014559 10 191 0.0 0.0 0.00 0.00 0.00 87 1008.1
20260503013049 10 198 0.0 0.0 0.00 0.00 0.00 87 1008.1
20260503011551 10 183 0.0 0.0 0.00 0.00 0.00 87 1008.2
20260503010051 10 215 0.0 0.0 0.00 0.00 0.00 87 1008.3
20260503004548 10 265 0.0 0.0 0.00 0.00 0.00 86 1008.6
20260503003047 10 189 0.0 0.0 0.00 0.00 0.00 85 1008.7
20260503001548 10 360 0.0 0.0 0.00 0.00 0.00 85 1008.6
20260503000044 10 189 0.0 0.0 0.00 0.00 0.00 85 1008.9
20260502234550 10 189 0.0 0.0 0.00 0.00 0.00 84 1008.9
20260502233042 10 188 0.0 0.0 0.00 0.00 0.00 83 1009.0
20260502231539 10 182 0.0 0.0 0.00 0.00 0.00 82 1009.0
20260502230038 11 187 0.0 0.0 0.00 0.00 0.00 81 1009.0
20260502224543 11 223 0.0 0.0 0.00 0.00 0.00 79 1008.9
20260502223040 11 173 0.0 0.0 0.00 0.00 0.00 77 1009.0
20260502221536 11 187 0.0 0.0 0.00 0.00 0.00 75 1009.2
20260502220034 11 360 0.0 0.0 0.00 0.00 0.00 74 1009.3
20260502214542 11 219 0.0 0.0 0.00 0.00 0.00 72 1009.4
20260502213032 11 227 0.0 0.0 0.00 0.00 0.00 71 1009.3
20260502211533 11 149 0.0 0.0 0.00 0.00 0.00 69 1009.1
20260502210035 12 360 0.0 0.0 0.00 0.00 0.00 69 1009.2
20260502204529 12 223 0.0 0.0 0.00 0.00 0.00 68 1009.3
20260502203029 12 360 0.0 0.0 0.00 0.00 0.00 67 1009.4
20260502201527 12 341 0.0 0.0 0.00 0.00 0.00 66 1009.9
20260502200028 12 219 0.0 0.0 0.00 0.00 0.00 65 1010.0
20260502194532 13 161 0.0 0.0 0.00 0.00 0.00 62 1010.2
20260502193027 13 360 0.0 0.0 0.00 0.00 0.00 62 1010.1
20260502191529 14 360 0.0 0.0 0.00 0.00 0.00 61 1009.9
20260502190030 14 244 0.0 0.0 0.00 0.00 0.00 60 1009.7
20260502184526 15 272 0.0 0.0 0.00 0.00 0.00 60 1009.7
20260502183026 15 360 0.0 0.0 0.00 0.00 0.00 60 1009.6
20260502181535 15 245 0.0 0.0 0.00 0.00 0.00 58 1009.6
20260502163037 19 245 0.0 0.0 0.00 0.00 0.00 51 1010.1
20260502161524 20 360 0.0 0.0 0.00 0.00 0.00 50 1010.1
20260502151528 20 215 0.0 0.0 0.00 0.00 0.00 54 1010.4
20260502123003 20 240 0.0 0.0 0.00 0.00 0.00 56 1012.4
20260502121504 20 218 0.0 0.0 0.00 0.00 0.00 56 1012.4
20260502114608 20 360 0.0 0.0 0.00 0.00 0.00 56 1012.8
20260502113104 20 360 0.0 0.0 0.00 0.00 0.00 56 1012.9
20260502111600 19 188 0.0 0.0 0.00 0.00 0.00 56 1013.0
20260502110055 19 231 0.0 0.0 0.00 0.00 0.00 55 1013.1
20260502104552 19 190 0.0 0.0 0.00 0.00 0.00 56 1013.1
20260502103102 18 202 0.0 0.0 0.00 0.00 0.00 57 1013.3
20260502101559 18 162 0.0 0.0 0.00 0.00 0.00 56 1013.4
20260502100113 18 360 0.0 0.0 0.00 0.00 0.00 58 1013.4